This is the latest recevied weather packets stored in our database for station/object ON5MM-5. If no packets are shown the sender has not sent any weather packets the latest 10 day(s).
| Time | Temp. | Humidity | Pressure | Rain* | Wind** | Luminosity | Snow |
|---|---|---|---|---|---|---|---|
| 1777362303 | 13.89° C | 47% | 1021.1 hPa | 0 mm | 1.79 m/s, ° | - | - |
| 1777362003 | 13.89° C | 49% | 1021 hPa | 0 mm | 0.89 m/s, ° | - | - |
| 1777361702 | 13.33° C | 49% | 1021 hPa | 0 mm | 1.79 m/s, ° | - | - |
| 1777361402 | 13.33° C | 50% | 1021 hPa | 0 mm | 1.34 m/s, ° | - | - |
| 1777361103 | 12.78° C | 51% | 1021 hPa | 0 mm | 1.79 m/s, ° | - | - |
| 1777360803 | 12.78° C | 52% | 1021 hPa | 0 mm | 0.89 m/s, ° | - | - |
| 1777360503 | 12.22° C | 55% | 1021 hPa | 0 mm | 0 m/s | - | - |
| 1777360202 | 11.67° C | 53% | 1021 hPa | 0 mm | 1.34 m/s, ° | - | - |
| 1777359902 | 11.11° C | 55% | 1021 hPa | 0 mm | 1.34 m/s, ° | - | - |
| 1777359602 | 11.67° C | 54% | 1021 hPa | 0 mm | 1.34 m/s, ° | - | - |
| 1777359302 | 11.11° C | 55% | 1021 hPa | 0 mm | 1.79 m/s, ° | - | - |
| 1777359003 | 11.67° C | 55% | 1021 hPa | 0 mm | 1.34 m/s, ° | - | - |
| 1777358702 | 11.67° C | 55% | 1021 hPa | 0 mm | 1.79 m/s, ° | - | - |
| 1777358403 | 11.11° C | 57% | 1020.9 hPa | 0 mm | 1.34 m/s, ° | - | - |
| 1777358102 | 11.11° C | 56% | 1020.9 hPa | 0 mm | 0.89 m/s, ° | - | - |
| 1777357802 | 10.56° C | 58% | 1020.9 hPa | 0 mm | 1.34 m/s, ° | - | - |
| 1777357503 | 10.56° C | 58% | 1020.8 hPa | 0 mm | 0.89 m/s, ° | - | - |
| 1777357202 | 10° C | 60% | 1020.8 hPa | 0 mm | 0.89 m/s, ° | - | - |
| 1777356903 | 10° C | 61% | 1020.9 hPa | 0 mm | 0.45 m/s, ° | - | - |
| 1777356603 | 9.44° C | 63% | 1020.9 hPa | 0 mm | 0 m/s | - | - |
| 1777356302 | 8.89° C | 63% | 1020.8 hPa | 0 mm | 0.45 m/s, ° | - | - |
| 1777356003 | 8.89° C | 64% | 1020.8 hPa | 0 mm | 1.34 m/s, ° | - | - |
| 1777355702 | 8.33° C | 66% | 1020.8 hPa | 0 mm | 0.45 m/s, ° | - | - |
| 1777355402 | 7.78° C | 66% | 1020.7 hPa | 0 mm | 0 m/s | - | - |
| 1777355102 | 7.78° C | 67% | 1020.7 hPa | 0 mm | 0 m/s | - | - |
* Rain latest hour (hover to see other rain measurements)
** Current wind speed in m/s (hover to see current wind gust speed)